Time,TemperatureF,DewpointF,PressureIn,WindDirection,WindDirectionDegrees,WindSpeedMPH,WindSpeedGustMPH,Humidity,HourlyPrecipIn,Conditions,Clouds,dailyrainin,SoftwareType,DateUTC
2013-03-03 00:00:00,52.0,44.1,29.95,NNW,338,0.0,0.0,67,0.00,,,0.00,Homeseer,2013-03-03 05:00:00,
2013-03-03 00:03:00,51.0,43.4,29.95,NNW,338,0.0,0.0,68,0.00,,,0.00,Homeseer,2013-03-03 05:03:00,
2013-03-03 00:05:00,52.0,43.8,29.95,NNW,338,0.0,0.0,66,0.00,,,0.00,Homeseer,2013-03-03 05:05:00,
2013-03-03 00:10:00,51.0,42.8,29.95,NW,315,0.0,0.0,66,0.00,,,0.00,Homeseer,2013-03-03 05:10:00,
2013-03-03 01:00:00,49.0,43.6,29.95,NNE,22,0.0,0.0,76,0.00,,,0.00,Homeseer,2013-03-03 06:00:00,
2013-03-03 01:03:00,49.0,44.6,29.95,NE,45,0.0,0.0,80,0.00,,,0.00,Homeseer,2013-03-03 06:03:00,
2013-03-03 01:05:00,49.0,44.4,29.95,NNE,22,0.0,0.0,79,0.00,,,0.00,Homeseer,2013-03-03 06:05:00,
2013-03-03 01:10:00,49.0,44.4,29.95,North,0,0.0,0.0,79,0.00,,,0.00,Homeseer,2013-03-03 06:10:00,
2013-03-03 02:00:00,48.0,44.6,29.95,NNE,22,0.0,0.0,84,0.00,,,0.00,Homeseer,2013-03-03 07:00:00,
2013-03-03 02:03:00,48.0,45.0,29.95,East,90,0.0,0.0,86,0.00,,,0.00,Homeseer,2013-03-03 07:03:00,
2013-03-03 02:05:00,48.0,44.6,29.95,East,90,0.0,0.0,84,0.00,,,0.00,Homeseer,2013-03-03 07:05:00,
2013-03-03 02:10:00,48.0,45.0,29.95,East,90,0.0,0.0,86,0.00,,,0.00,Homeseer,2013-03-03 07:10:00,
2013-03-03 03:00:00,48.0,45.7,29.95,ENE,68,0.0,0.0,89,0.00,,,0.00,Homeseer,2013-03-03 08:00:00,
2013-03-03 03:03:00,48.0,45.7,29.95,ENE,68,0.0,0.0,89,0.00,,,0.00,Homeseer,2013-03-03 08:03:00,
2013-03-03 03:06:00,48.0,45.5,29.95,ENE,68,0.0,0.0,88,0.00,,,0.00,Homeseer,2013-03-03 08:06:00,
2013-03-03 03:11:00,48.0,45.3,29.95,ENE,68,0.0,0.0,87,0.00,,,0.00,Homeseer,2013-03-03 08:11:00,
2013-03-03 04:00:00,48.0,45.5,29.95,West,270,0.0,0.0,88,0.00,,,0.00,Homeseer,2013-03-03 09:00:00,
2013-03-03 04:03:00,48.0,45.5,29.95,ENE,68,0.0,0.0,88,0.00,,,0.00,Homeseer,2013-03-03 09:03:00,
2013-03-03 04:05:00,48.0,45.7,29.95,WSW,248,0.0,0.0,89,0.00,,,0.00,Homeseer,2013-03-03 09:05:00,
2013-03-03 04:10:00,48.0,45.7,29.95,SSW,202,0.0,0.0,89,0.00,,,0.00,Homeseer,2013-03-03 09:10:00,
2013-03-03 05:00:00,48.0,46.1,29.95,East,90,0.0,0.0,91,0.00,,,0.00,Homeseer,2013-03-03 10:00:00,
2013-03-03 05:03:00,47.0,45.6,29.95,ENE,68,0.0,0.0,93,0.00,,,0.00,Homeseer,2013-03-03 10:03:00,
2013-03-03 05:05:00,48.0,46.1,29.95,ENE,68,0.0,0.0,91,0.00,,,0.00,Homeseer,2013-03-03 10:05:00,
2013-03-03 05:10:00,48.0,46.1,29.95,ENE,68,0.0,0.0,91,0.00,,,0.00,Homeseer,2013-03-03 10:10:00,
2013-03-03 06:00:00,48.0,45.9,29.95,NW,315,5.0,12.0,90,0.00,,,0.00,Homeseer,2013-03-03 11:00:00,
2013-03-03 06:03:00,43.0,39.0,29.95,West,270,0.0,0.0,81,0.00,,,0.00,Homeseer,2013-03-03 11:03:00,
2013-03-03 06:05:00,47.0,42.9,29.95,WNW,292,5.0,8.0,81,0.00,,,0.00,Homeseer,2013-03-03 11:05:00,
2013-03-03 06:10:00,44.0,40.0,29.95,NNW,338,0.0,0.0,81,0.00,,,0.00,Homeseer,2013-03-03 11:10:00,
2013-03-03 07:00:00,41.0,36.9,29.95,WNW,292,0.0,0.0,80,0.00,,,0.00,Homeseer,2013-03-03 12:00:00,
2013-03-03 07:03:00,42.0,37.6,29.95,NW,315,0.0,0.0,79,0.00,,,0.00,Homeseer,2013-03-03 12:03:00,
2013-03-03 07:05:00,41.0,36.9,29.95,NNW,338,0.0,1.0,80,0.00,,,0.00,Homeseer,2013-03-03 12:05:00,
2013-03-03 07:10:00,42.0,37.6,29.95,NNW,338,0.0,1.0,79,0.00,,,0.00,Homeseer,2013-03-03 12:10:00,
2013-03-03 08:00:00,43.0,37.8,29.95,WNW,292,0.0,0.0,76,0.00,,,0.00,Homeseer,2013-03-03 13:00:00,
2013-03-03 08:03:00,44.0,38.3,29.95,NW,315,0.0,0.0,74,0.00,,,0.00,Homeseer,2013-03-03 13:03:00,
2013-03-03 08:05:00,43.0,38.1,29.95,NNW,338,0.0,0.0,77,0.00,,,0.00,Homeseer,2013-03-03 13:05:00,
2013-03-03 08:10:00,44.0,38.3,29.95,NNE,22,0.0,0.0,74,0.00,,,0.00,Homeseer,2013-03-03 13:10:00,
2013-03-03 09:00:00,47.0,41.5,29.95,NW,315,0.0,0.0,75,0.00,,,0.00,Homeseer,2013-03-03 14:00:00,
2013-03-03 09:03:00,47.0,41.5,29.95,NW,315,0.0,0.0,75,0.00,,,0.00,Homeseer,2013-03-03 14:03:00,
2013-03-03 09:05:00,47.0,41.5,29.95,NNW,338,0.0,0.0,75,0.00,,,0.00,Homeseer,2013-03-03 14:05:00,
2013-03-03 09:10:00,47.0,41.2,29.95,WNW,292,0.0,0.0,74,0.00,,,0.00,Homeseer,2013-03-03 14:10:00,
2013-03-03 10:00:00,49.0,41.8,29.95,NNW,338,0.0,0.0,69,0.00,,,0.00,Homeseer,2013-03-03 15:00:00,
2013-03-03 10:03:00,49.0,40.7,29.95,NNW,338,0.0,0.0,65,0.00,,,0.00,Homeseer,2013-03-03 15:03:00,
2013-03-03 10:05:00,49.0,41.8,29.95,NNW,338,0.0,0.0,69,0.00,,,0.00,Homeseer,2013-03-03 15:05:00,
2013-03-03 10:10:00,49.0,41.8,29.95,WSW,248,0.0,0.0,69,0.00,,,0.00,Homeseer,2013-03-03 15:10:00,
2013-03-03 11:00:00,52.0,43.2,29.95,WNW,292,0.0,0.0,64,0.00,,,0.00,Homeseer,2013-03-03 16:00:00,
2013-03-03 11:03:00,53.0,43.8,29.95,WNW,292,0.0,0.0,63,0.00,,,0.00,Homeseer,2013-03-03 16:03:00,
2013-03-03 11:05:00,52.0,43.2,29.95,WNW,292,0.0,0.0,64,0.00,,,0.00,Homeseer,2013-03-03 16:05:00,
2013-03-03 11:11:00,53.0,44.1,29.95,NW,315,0.0,0.0,64,0.00,,,0.00,Homeseer,2013-03-03 16:11:00,
2013-03-03 12:00:00,55.0,45.1,29.95,SW,225,0.0,0.0,61,0.00,,,0.00,Homeseer,2013-03-03 17:00:00,
2013-03-03 12:03:00,56.0,45.4,29.95,WSW,248,0.0,0.0,59,0.00,,,0.00,Homeseer,2013-03-03 17:03:00,
2013-03-03 12:05:00,56.0,46.0,29.95,SW,225,0.0,0.0,61,0.00,,,0.00,Homeseer,2013-03-03 17:05:00,
2013-03-03 12:10:00,55.0,44.8,29.95,NNW,338,0.0,0.0,60,0.00,,,0.00,Homeseer,2013-03-03 17:10:00,
2013-03-03 13:00:00,56.0,45.4,29.95,SW,225,0.0,0.0,59,0.00,,,0.00,Homeseer,2013-03-03 18:00:00,
2013-03-03 13:03:00,56.0,45.0,29.95,NW,315,0.0,0.0,58,0.00,,,0.00,Homeseer,2013-03-03 18:03:00,
2013-03-03 13:05:00,56.0,45.4,29.95,NNW,338,0.0,0.0,59,0.00,,,0.00,Homeseer,2013-03-03 18:05:00,
2013-03-03 13:10:00,56.0,45.4,29.95,WNW,292,0.0,0.0,59,0.00,,,0.00,Homeseer,2013-03-03 18:10:00,
2013-03-03 14:00:00,58.0,46.9,29.95,West,270,0.0,0.0,58,0.00,,,0.00,Homeseer,2013-03-03 19:00:00,
2013-03-03 14:03:00,59.0,47.5,29.95,SW,225,3.0,8.0,57,0.00,,,0.00,Homeseer,2013-03-03 19:03:00,
2013-03-03 14:05:00,58.0,46.6,29.95,WNW,292,0.0,0.0,57,0.00,,,0.00,Homeseer,2013-03-03 19:05:00,
2013-03-03 14:10:00,59.0,47.8,29.95,SW,225,0.0,0.0,58,0.00,,,0.00,Homeseer,2013-03-03 19:10:00,
2013-03-03 15:00:00,58.0,47.9,29.95,SW,225,4.0,9.0,61,0.00,,,0.00,Homeseer,2013-03-03 20:00:00,
2013-03-03 15:03:00,58.0,47.9,29.95,WSW,248,0.0,0.0,61,0.00,,,0.00,Homeseer,2013-03-03 20:03:00,
2013-03-03 15:05:00,58.0,47.9,29.95,SSW,202,4.0,14.0,61,0.00,,,0.00,Homeseer,2013-03-03 20:05:00,
2013-03-03 15:10:00,59.0,48.5,29.95,NNW,338,0.0,0.0,60,0.00,,,0.00,Homeseer,2013-03-03 20:10:00,
2013-03-03 21:03:00,48.0,43.2,29.95,NW,315,0.0,0.0,78,0.00,,,0.00,Homeseer,2013-03-04 02:03:00,
2013-03-03 21:08:00,58.0,48.2,29.95,WSW,248,0.0,0.0,62,0.00,,,0.00,Homeseer,2013-03-04 02:08:00,
2013-03-03 21:13:00,48.0,43.2,29.95,North,360,0.0,0.0,78,0.00,,,0.00,Homeseer,2013-03-04 02:13:00,
2013-03-03 22:00:00,47.0,42.4,29.95,NNW,338,0.0,0.0,79,0.00,,,0.00,Homeseer,2013-03-04 03:00:00,
2013-03-03 22:03:00,47.0,42.4,29.95,NNW,338,0.0,0.0,79,0.00,,,0.00,Homeseer,2013-03-04 03:03:00,
2013-03-03 22:05:00,47.0,42.4,29.95,NNW,338,0.0,0.0,79,0.00,,,0.00,Homeseer,2013-03-04 03:05:00,
2013-03-03 22:10:00,47.0,42.4,29.95,NW,315,0.0,0.0,79,0.00,,,0.00,Homeseer,2013-03-04 03:10:00,
2013-03-03 23:00:00,46.0,41.7,29.95,NNW,338,0.0,0.0,80,0.00,,,0.00,Homeseer,2013-03-04 04:00:00,
2013-03-03 23:03:00,46.0,41.9,29.95,NNW,338,0.0,0.0,81,0.00,,,0.00,Homeseer,2013-03-04 04:03:00,
2013-03-03 23:05:00,46.0,41.7,29.95,NNW,338,0.0,0.0,80,0.00,,,0.00,Homeseer,2013-03-04 04:05:00,
2013-03-03 23:10:00,46.0,41.7,29.95,NNW,338,0.0,0.0,80,0.00,,,0.00,Homeseer,2013-03-04 04:10:00,